TimeEDT,TemperatureF,Dew PointF,Humidity,Sea Level PressureIn,VisibilityMPH,Wind Direction,Wind SpeedMPH,Gust SpeedMPH,PrecipitationIn,Events,Conditions,WindDirDegrees,DateUTC
12:51 AM,33.1,21.0,61,30.23,10.0,Calm,Calm,-,N/A,,Clear,0,2013-03-30 04:51:00
1:51 AM,30.9,21.0,67,30.23,10.0,Calm,Calm,-,N/A,,Clear,0,2013-03-30 05:51:00
2:51 AM,30.0,19.9,66,30.22,10.0,Calm,Calm,-,N/A,,Clear,0,2013-03-30 06:51:00
3:51 AM,28.9,21.0,72,30.22,10.0,Calm,Calm,-,N/A,,Clear,0,2013-03-30 07:51:00
4:51 AM,28.0,21.0,75,30.22,10.0,Calm,Calm,-,N/A,,Clear,0,2013-03-30 08:51:00
5:51 AM,26.1,19.9,78,30.22,10.0,Calm,Calm,-,N/A,,Clear,0,2013-03-30 09:51:00
6:51 AM,26.1,19.9,78,30.23,10.0,Calm,Calm,-,N/A,,Clear,0,2013-03-30 10:51:00
7:51 AM,30.9,21.0,67,30.24,10.0,Calm,Calm,-,N/A,,Clear,0,2013-03-30 11:51:00
8:51 AM,34.0,24.1,67,30.26,10.0,SW,3.5,-,N/A,,Partly Cloudy,220,2013-03-30 12:51:00
9:51 AM,41.0,26.1,55,30.25,10.0,SSW,4.6,-,N/A,,Partly Cloudy,200,2013-03-30 13:51:00
10:51 AM,46.0,25.0,44,30.23,10.0,SSW,5.8,-,N/A,,Partly Cloudy,210,2013-03-30 14:51:00
11:51 AM,48.9,24.1,38,30.22,10.0,Variable,5.8,-,N/A,,Scattered Clouds,0,2013-03-30 15:51:00
12:51 PM,48.9,23.0,36,30.19,10.0,Variable,3.5,-,N/A,,Partly Cloudy,0,2013-03-30 16:51:00
1:51 PM,51.1,24.1,35,30.18,10.0,Variable,3.5,16.1,N/A,,Scattered Clouds,0,2013-03-30 17:51:00
2:51 PM,52.0,21.9,31,30.16,10.0,Variable,3.5,-,N/A,,Scattered Clouds,0,2013-03-30 18:51:00
3:51 PM,53.1,23.0,31,30.14,10.0,WSW,9.2,18.4,N/A,,Scattered Clouds,240,2013-03-30 19:51:00
4:51 PM,53.1,19.9,27,30.11,10.0,South,9.2,-,N/A,,Mostly Cloudy,190,2013-03-30 20:51:00
5:51 PM,52.0,21.0,30,30.10,10.0,Variable,4.6,-,N/A,,Mostly Cloudy,0,2013-03-30 21:51:00
6:51 PM,51.1,19.0,28,30.09,10.0,SSW,8.1,-,N/A,,Overcast,200,2013-03-30 22:51:00
7:51 PM,48.9,18.0,29,30.07,10.0,SSW,3.5,-,N/A,,Overcast,200,2013-03-30 23:51:00
8:51 PM,46.9,18.0,32,30.06,10.0,Calm,Calm,-,N/A,,Overcast,0,2013-03-31 00:51:00
9:51 PM,45.0,19.0,36,30.06,10.0,South,3.5,-,N/A,,Overcast,170,2013-03-31 01:51:00
10:51 PM,45.0,19.9,37,30.04,10.0,SSE,5.8,-,N/A,,Overcast,150,2013-03-31 02:51:00
11:51 PM,45.0,19.0,36,30.01,10.0,SSE,6.9,-,N/A,,Overcast,150,2013-03-31 03:51:00